This is the latest recevied weather packets stored in our database for station/object OH2EGI-2. If no packets are shown the sender has not sent any weather packets the latest 10 day(s).
| Time | Temp. | Humidity | Pressure | Rain* | Wind** | Luminosity | Snow |
|---|---|---|---|---|---|---|---|
| 1777675610 | 5.56° C | 69% | 1006 hPa | 0 mm | - | - | - |
| 1777675310 | 5.56° C | 68% | 1006 hPa | 0 mm | - | - | - |
| 1777675010 | 6.11° C | 67% | 1006 hPa | 0 mm | - | - | - |
| 1777674711 | 6.11° C | 67% | 1005.9 hPa | 0 mm | - | - | - |
| 1777674411 | 6.11° C | 67% | 1006 hPa | 0 mm | - | - | - |
| 1777674111 | 6.67° C | 67% | 1006 hPa | 0 mm | - | - | - |
| 1777673810 | 6.67° C | 67% | 1006 hPa | 0 mm | - | - | - |
| 1777673510 | 6.67° C | 67% | 1006.3 hPa | 0 mm | - | - | - |
| 1777673210 | 6.67° C | 66% | 1006.3 hPa | 0 mm | - | - | - |
| 1777672910 | 7.22° C | 66% | 1006.2 hPa | 0 mm | - | - | - |
| 1777672610 | 7.22° C | 66% | 1006.4 hPa | 0 mm | - | - | - |
| 1777672310 | 7.22° C | 65% | 1006.4 hPa | 0 mm | - | - | - |
| 1777672011 | 7.22° C | 65% | 1006.3 hPa | 0 mm | - | - | - |
| 1777671710 | 7.22° C | 64% | 1006.5 hPa | 0 mm | - | - | - |
| 1777671410 | 7.78° C | 63% | 1006.4 hPa | 0 mm | - | - | - |
| 1777671110 | 7.78° C | 63% | 1006.5 hPa | 0 mm | - | - | - |
| 1777670810 | 7.78° C | 63% | 1006.6 hPa | 0 mm | - | - | - |
| 1777670510 | 7.78° C | 63% | 1006.7 hPa | 0 mm | - | - | - |
| 1777670210 | 8.33° C | 63% | 1006.7 hPa | 0 mm | - | - | - |
| 1777669910 | 8.33° C | 62% | 1006.8 hPa | 0 mm | - | - | - |
| 1777669610 | 8.33° C | 61% | 1006.8 hPa | 0 mm | - | - | - |
| 1777669310 | 8.89° C | 61% | 1006.9 hPa | 0 mm | - | - | - |
| 1777669010 | 8.89° C | 61% | 1006.9 hPa | 0 mm | - | - | - |
| 1777668710 | 9.44° C | 60% | 1006.9 hPa | 0 mm | - | - | - |
| 1777668410 | 9.44° C | 60% | 1006.9 hPa | 0 mm | - | - | - |
* Rain latest hour (hover to see other rain measurements)
** Current wind speed in m/s (hover to see current wind gust speed)